Regional Weather Roundup
Issued by NWS

Home | Current Version | Previous Version | Graphics & Text | Print | Product List | Glossary On
Versions: 1 2 3 4 5 6 7 8 9 10 11 12 13 14 15 16 17 18 19 20 21 22 23 24 25 26 27 28 29 30 31 32 33 34 35 36 37 38 39 40 41 42 43 44 45 46 47 48 49 50
000
ASUS45 KCYS 290610
RWRWY

WYOMING REGIONAL WEATHER ROUNDUP
NATIONAL WEATHER SERVICE CHEYENNE WY
1200 AM MDT SAT APR 29 2017

NOTE:  "FAIR" INDICATES FEW OR NO CLOUDS BELOW 12,000 FEET
WITH NO SIGNIFICANT WEATHER AND/OR OBSTRUCTIONS TO VISIBILITY.

WYZ001-290700-
YELLOWSTONE NATIONAL PARK

CITY           SKY/WX    TMP DP  RH WIND       PRES   REMARKS
LK YELLOWSTONE   N/A     23  18  81 CALM      30.12F
6HR MIN TEMP:  23; 6HR MAX TEMP:  32;

W YELLOWSTONE  NOT AVBL

$$
WYZ002>013-054>058-071-098>099-290700-
NORTHERN WYOMING

CITY           SKY/WX    TMP DP  RH WIND       PRES   REMARKS
JACKSON        FAIR      34  23  64 NE9       30.09S WCI  26
CODY           FAIR      35  29  78 NW3       30.18S
GREYBULL       CLOUDY    39  32  76 CALM      30.17R
6HR MIN TEMP:  39; 6HR MAX TEMP:  46;

WORLAND        CLOUDY    33  33 100 SW5       30.18R WCI  29
6HR MIN TEMP:  33; 6HR MAX TEMP:  39; 6HR PCP:  0.03;

SHERIDAN       FAIR      31  28  89 SW3       30.18F
6HR MIN TEMP:  31; 6HR MAX TEMP:  38;

BUFFALO        FAIR      31  18  58 W8        30.18F WCI  23
6HR MIN TEMP:  31; 6HR MAX TEMP:  35;

GILLETTE       FAIR      30  29  96 W9        30.18S WCI  22
6HR MIN TEMP:  30; 6HR MAX TEMP:  35;

HULETT         FAIR      32  30  93 S7        30.19S WCI  26
NEWCASTLE      MOCLDY    34  28  80 CALM      30.19S

$$
WYZ014>020-022>026-101>103-290700-
CENTRAL WYOMING

CITY           SKY/WX    TMP DP  RH WIND       PRES   REMARKS
BIG PINEY      FAIR      25  22  88 SW7       30.08R WCI  17
6HR MIN TEMP:  25; 6HR MAX TEMP:  36;

PINEDALE       FAIR      30  16  55 NE5       30.07R WCI  25
DUBOIS         LGT SNOW  25  23  93 SE7       30.12R WCI  17
LANDER         CLOUDY    29  26  89 NE3       30.16S
6HR MIN TEMP:  29; 6HR MAX TEMP:  31; 6HR PCP:  0.15;

RIVERTON       CLOUDY    29  25  85 E9        30.17S WCI  20
6HR MIN TEMP:  29; 6HR MAX TEMP:  31; 6HR PCP:  0.07;

CASPER         CLOUDY    30  27  88 E7        30.15F WCI  23
6HR MIN TEMP:  29; 6HR MAX TEMP:  32; 6HR PCP:  0.01;

DOUGLAS        CLOUDY    25  24  96 W6        30.15F FOG     WCI  18
6HR MIN TEMP:  25; 6HR MAX TEMP:  31; 6HR PCP: TRACE;


$$
WYZ021-027>030-104>119-290700-
SOUTHERN WYOMING

CITY           SKY/WX    TMP DP  RH WIND       PRES   REMARKS
EVANSTON       CLOUDY    26  23  88 NE10      30.04S WCI  16
6HR MIN TEMP:  26; 6HR MAX TEMP:  30; 6HR PCP: TRACE;

FORT BRIDGER   CLOUDY    28  27  93 E9        30.09R WCI  20
ROCK SPRINGS   CLOUDY    29  22  75 NE17G26   30.05R WCI  17
6HR MIN TEMP:  29; 6HR MAX TEMP:  33; 6HR PCP: TRACE;

DIXON            N/A     32  19  57 E21G31    29.97R WCI  20
RAWLINS        MOCLDY    25  20  81 NE23G32   30.04F WCI  10
6HR MIN TEMP:  25; 6HR MAX TEMP:  32;

SARATOGA       CLOUDY    28  19  69 E18G25    30.02R WCI  16
LARAMIE        CLOUDY    23  19  85 E20       30.05R WCI   8
6HR MIN TEMP:  23; 6HR MAX TEMP:  28; 6HR PCP: TRACE;

CHEYENNE       LGT SNOW  27  25  92 NE12      30.10R FOG     WCI  17
6HR MIN TEMP:  26; 6HR MAX TEMP:  29; 6HR PCP:  0.01;

TORRINGTON     CLOUDY    32  29  88 N3        30.13R
6HR MIN TEMP:  32; 6HR MAX TEMP:  33; 6HR PCP:  0.03;

PINE BLUFFS    CLOUDY    30  28  93 NE8       30.13R WCI  23

$$



USA.gov is the U.S. government's official web portal to all federal, state and local government web resources and services.